CAPE
985 691 1538 1533 997 862 684 1053 1198 1258 1232 1407 1321 1296 1340 1287 950 892 838 1191 1018 1006 1097 887 453 333 107 304 435 464 495 544 430 424 609 429 531 535 552 187 554 505 630
1195 889 1343 1649 1320 1174 1245 805 917 1238 1609 1222 1378 1410 1543 1248 622 607 810 928 1090 965 777 505 290 524 637 585 506 327 328 319 257 562 539 411 455 492 391 410 415 82 374
1272 1008 434 1436 1663 1672 1676 1222 957 1166 1319 1556 1008 804 946 821 603 591 740 782 696 575 482 334 250 192 126 354 353 252 249 186 128 89 287 54 38 263 355 510 556 469 291
1205 1228 604 1278 1542 1733 1595 1309 1173 1104 1199 1186 1704 1417 1082 1066 1108 1141 1180 1000 901 769 596 545 199 184 421 366 252 266 231 177 140 100 68 30 7 18 96 230 347 399 366
1417 1217 1246 1610 1889 1485 1867 1343 1220 1439 1044 1234 1549 1461 1477 1386 1351 1260 1194 1124 1125 933 805 751 365 212 228 315 335 226 204 171 152 70 44 51 25 7 5 30 111 168 103
675 1148 1151 1092 1109 1231 1264 1332 1184 1458 957 1089 1583 1374 1415 1336 1428 1322 1180 1197 1093 787 737 342 296 173 101 113 213 112 155 130 64 67 31 39 34 0 215 238 134 146 91
0 0 86 1274 1155 1083 1027 1252 1105 1548 1295 1285 1638 1418 1342 1386 1332 1337 1222 1275 1086 771 682 420 186 31 1 0 25 31 0 106 61 59 32 32 29 63 120 87 69 80 104
0 0 0 99 970 1092 1080 1063 1236 1208 1275 1438 1522 1430 1377 1341 1305 1180 1162 1154 1105 836 789 511 231 0 0 0 0 0 0 0 42 43 21 32 47 21 78 55 37 27 35
0 0 0 0 0 203 1160 961 946 1143 1334 1389 1595 1429 1191 1241 1213 1344 1102 1013 897 605 486 309 90 0 0 0 0 0 0 15 46 30 14 2 73 69 77 40 21 4 7
0 0 0 0 0 0 0 934 831 687 785 1148 1299 1131 933 627 723 1197 679 719 853 692 313 103 4 0 0 0 0 0 0 17 67 21 8 45 134 96 40 20 4 4 6
0 0 0 0 0 0 0 0 800 637 561 420 615 782 626 753 730 585 433 485 625 742 268 12 0 0 0 0 0 0 0 5 23 11 10 186 155 96 35 8 3 4 5
0 0 0 0 0 0 0 0 0 138 1123 1104 828 859 906 818 842 614 494 91 421 412 93 3 0 0 0 0 0 0 0 6 32 33 34 258 166 58 16 7 5 2 2
0 0 0 0 0 0 0 0 0 0 24 844 891 976 715 818 970 1023 637 105 102 0 2 1 0 0 0 0 0 0 2 38 37 34 54 95 71 49 17 6 4 2 3
0 0 0 0 0 0 0 0 0 0 0 0 0 761 1087 785 942 781 996 395 312 0 3 0 0 0 0 0 0 1 20 35 40 44 47 69 44 24 11 14 7 2 2
0 0 0 0 0 0 0 0 0 0 0 0 0 0 220 924 702 533 730 474 259 48 0 0 0 0 0 1 5 15 25 31 26 109 96 22 66 22 16 14 11 2 1
0 0 0 0 0 0 0 0 0 0 0 0 0 0 0 0 241 755 2 2 11 0 0 2 0 0 1 9 18 25 37 49 66 52 76 22 23 36 25 17 11 4 2
0 0 0 0 0 0 0 0 0 0 0 0 0 0 0 3 6 13 1 1 2 0 0 0 0 0 12 21 32 28 31 44 43 4 0 0 10 15 46 20 16 4 1
0 0 0 0 0 0 0 0 0 0 0 0 0 0 0 1 2 6 5 2 1 2 2 0 0 7 30 37 30 17 31 4 0 0 0 0 0 2 22 38 21 3 1
0 0 0 0 0 0 0 0 0 0 0 0 0 0 0 0 3 18 4 3 6 0 4 0 4 9 58 46 0 0 0 0 0 0 0 0 0 0 0 18 14 12 9
0 0 0 0 0 0 0 0 0 0 0 0 0 0 0 0 1 6 21 14 4 2 4 7 1 12 21 9 0 0 0 0 0 0 0 0 0 0 0 0 0 20 29
0 0 0 0 0 0 0 0 0 0 0 0 0 0 19 12 26 13 5 2 6 4 2 0 1 13 2 0 0 0 0 0 0 0 0 0 0 0 0 0 6 0 0
0 0 0 0 0 0 0 0 0 0 0 0 36 4 27 56 68 43 6 6 1 1 4 1 4 16 1 0 0 0 2 0 0 0 0 0 0 0 0 0 7 0 0
0 0 0 0 0 0 0 0 0 0 0 0 0 70 44 46 78 89 32 5 2 1 0 3 4 10 0 0 0 0 2 0 0 0 0 0 0 0 0 0 0 0 0
0 0 0 0 0 0 0 0 0 3 3 13 21 38 74 25 80 70 96 9 8 8 1 1 0 10 0 0 0 0 0 0 0 0 0 0 0 0 0 0 0 0 0
0 0 0 0 0 0 0 1 4 8 18 27 17 26 58 48 53 60 68 36 3 6 12 2 0 0 0 0 0 0 0 0 0 0 0 0 0 0 0 0 0 0 0
0 0 0 5 9 4 8 11 16 17 14 11 15 26 44 79 29 50 67 49 9 0 11 1 0 1 0 0 0 0 0 0 0 0 0 0 0 0 0 0 0 0 0
CIN
-13 -83 -8 -5 -18 -26 -23 -4 -2 -4 -4 0 0 0 0 0 0 0 0 0 0 0 0 0 -3 -15 -82 -30 -7 -16 -23 -33 -73 -79 -52 -108 -69 -78 -63 -101 -56 -55 -26
-4 -24 -13 -3 -4 -10 -5 -6 -3 -1 -3 -3 0 0 0 0 -3 -1 0 0 0 0 0 0 -12 0 0 0 -6 -40 -62 -82 -116 -51 -72 -109 -86 -78 -88 -84 -72 -216 -72
0 -9 -100 -8 -4 -2 -3 -3 -2 -4 -4 -3 -4 -5 -1 0 -5 -1 0 0 0 0 0 -6 -20 -34 -69 -12 -27 -59 -77 -128 -184 -212 -144 -44 -256 -138 -98 -62 -48 -57 -102
0 -1 -26 -12 -4 -3 -2 -5 -3 -2 -4 -3 0 0 -2 0 0 0 0 0 -1 -2 -1 0 -43 -43 -8 -14 -39 -59 -76 -115 -175 -245 -13 -1 -1 -166 -207 -137 -88 -64 -71
0 0 -2 -9 -2 -2 -3 -5 -5 -2 -4 -1 -1 -1 -2 0 0 0 0 0 0 -2 -5 0 -1 -28 -29 -24 -22 -56 -96 -129 -166 -75 -8 -11 -7 0 0 -1 -175 -133 -179
-9 0 -6 -16 -8 -4 -4 -5 -4 -2 -8 -2 -1 -1 -1 -2 0 0 -1 -1 -2 -4 0 -11 -8 -27 -73 -78 -59 -106 -101 -166 -38 -11 -6 -2 -9 0 -130 -106 -163 -158 -194
0 0 -110 -8 -12 -11 -10 -3 -5 0 -5 -4 -1 -3 -3 0 -1 0 -2 -2 -2 -3 -2 0 -18 -96 -108 0 -97 -95 0 -130 -9 -3 -5 -3 -8 0 -162 -21 0 -163 -181
0 0 0 -54 -15 -16 -12 -10 -5 -7 -9 -5 -2 -2 -2 -2 -1 -1 -1 -2 0 0 0 0 -11 0 0 0 0 0 0 0 -9 -4 -5 -1 -11 0 0 0 0 0 0
0 0 0 0 0 -74 -20 -19 -16 -10 -8 -6 -4 -2 -4 -4 -5 0 -3 -3 0 0 0 -2 -50 0 0 0 0 0 0 -41 -30 -5 0 -1 -4 0 0 0 -3 0 0
0 0 0 0 0 0 0 -45 -31 -23 -23 -11 -10 -11 -12 -23 -17 -3 -9 -9 -2 0 -11 -58 -21 0 0 0 0 0 0 -52 -28 -3 -1 -14 -181 -160 0 -11 0 0 0
0 0 0 0 0 0 0 0 -19 -38 -26 -31 -30 -14 -14 -3 0 -1 -5 -10 -10 -2 -11 -127 0 0 0 0 0 0 0 -7 -12 0 0 -114 -147 0 -3 0 0 0 0
0 0 0 0 0 0 0 0 0 -17 -1 -1 0 -1 0 0 0 -4 -3 -34 -21 -6 -52 0 0 0 0 0 0 0 0 0 -1 0 -9 -82 -123 0 -15 0 0 0 0
0 0 0 0 0 0 0 0 0 0 -4 0 -1 0 -5 -7 -3 -4 -16 -29 -33 0 -3 0 0 0 0 0 0 0 -2 -1 -1 -1 -24 -43 0 -2 -25 0 0 0 0
0 0 0 0 0 0 0 0 0 0 0 0 0 -1 0 -9 -3 -6 0 0 0 0 -1 0 0 0 0 0 0 0 -1 -1 -1 -1 -33 -16 0 0 0 0 0 0 0
0 0 0 0 0 0 0 0 0 0 0 0 0 0 0 0 -4 -13 -1 -1 -2 -12 0 0 0 0 0 0 0 -1 -1 -1 0 -29 -4 -17 -1 -26 0 0 0 0 0
0 0 0 0 0 0 0 0 0 0 0 0 0 0 0 0 -5 0 -18 -52 -12 0 0 -15 -2 0 0 -1 -1 0 -1 0 -32 -10 0 -3 -19 -11 0 0 0 0 0
0 0 0 0 0 0 0 0 0 0 0 0 0 0 0 -2 -1 0 0 0 0 0 0 0 0 0 -2 -1 -6 -13 -19 -37 -20 -39 -1 0 -5 -9 -1 0 0 0 0
0 0 0 0 0 0 0 0 0 0 0 0 0 0 0 0 0 0 0 -2 0 0 0 0 0 -16 -13 -15 -13 -10 -12 -8 0 0 0 0 0 -6 -3 0 0 0 0
0 0 0 0 0 0 0 0 0 0 0 0 0 0 0 0 0 0 -4 -19 -36 0 0 0 -7 -17 -14 -21 -2 0 0 0 0 0 0 0 0 0 0 -15 -3 -3 0
0 0 0 0 0 0 0 0 0 0 0 0 0 0 0 0 0 0 -3 -4 -1 0 0 -1 -3 -13 -11 -22 0 0 0 0 0 0 0 0 0 0 0 0 0 -8 -1
0 0 0 0 0 0 0 0 0 0 0 0 0 0 -27 -12 -16 -5 -11 -1 -7 0 0 0 0 -4 -9 0 0 0 0 0 0 0 0 0 0 0 0 0 -2 0 0
0 0 0 0 0 0 0 0 0 0 0 0 -4 -16 -80 -35 -29 -34 -3 0 0 0 0 0 0 0 -1 0 0 0 0 0 0 0 0 0 0 0 0 0 -2 0 0
0 0 0 0 0 0 0 0 0 0 0 0 0 -11 -23 -67 -56 -22 -12 0 0 -14 0 0 -1 -1 0 0 0 0 -1 0 0 0 0 0 0 0 0 0 0 0 0
0 0 0 0 0 0 0 0 0 0 0 0 0 0 -1 -15 -25 -44 -15 -4 0 -16 0 -17 0 -1 0 0 0 0 0 0 0 0 0 0 0 0 0 0 0 0 0
0 0 0 0 0 0 0 0 0 0 0 0 0 0 -1 -13 -3 -28 -25 -9 -7 -7 -2 -34 0 0 0 0 0 0 0 0 0 0 0 0 0 0 0 0 0 0 0
0 0 0 0 0 0 0 0 0 -1 -5 -4 -1 0 0 -4 -15 -16 -17 -17 -1 -3 -10 -16 -3 -1 -1 0 0 0 0 0 0 0 0 0 0 0 0 0 0 0 0
Wind_Speed
1 12 8 11 12 12 8 3 7 10 4 10 10 9 9 10 9 9 9 9 10 10 13 13 12 12 12 10 11 12 11 12 11 12 12 11 12 9 7 3 7 13 13
1 6 11 9 11 11 10 6 4 4 10 7 7 9 10 9 9 9 9 10 10 10 11 11 11 11 12 11 11 11 12 11 10 9 12 12 11 11 9 8 13 12 13
3 7 13 7 9 10 10 11 6 6 7 10 10 9 9 9 10 9 10 11 11 11 12 12 11 10 10 11 10 10 10 9 6 3 5 5 9 9 10 12 13 12 12
1 3 9 10 7 9 9 10 9 8 6 6 9 12 12 10 10 10 10 9 10 10 11 13 11 10 10 10 10 8 9 8 5 5 6 6 10 8 10 12 13 14 14
8 4 7 8 8 6 10 10 10 10 7 8 7 9 10 10 10 10 10 10 8 10 12 12 11 10 9 9 9 8 8 7 5 5 5 6 5 7 9 10 12 14 14
10 6 3 1 2 5 7 9 8 10 9 11 9 8 8 9 9 10 10 6 8 11 12 12 12 10 9 9 8 8 8 6 5 3 4 6 8 8 10 15 14 14 13
9 9 8 6 5 8 8 8 9 10 11 11 9 9 9 9 11 10 7 9 10 11 12 13 11 10 8 8 8 7 6 6 6 1 4 5 9 10 13 14 15 16 16
7 6 6 4 3 5 10 9 10 9 12 12 9 9 9 11 11 9 10 11 12 13 13 12 11 9 8 7 7 7 5 7 9 5 3 5 10 11 14 14 13 13 15
6 7 6 5 6 6 8 11 11 11 11 12 9 9 10 11 11 10 11 13 13 11 10 10 10 9 7 6 6 6 5 9 5 6 3 5 6 12 16 15 14 13 12
5 5 6 6 5 5 7 11 12 13 12 10 10 9 9 11 10 10 11 12 14 11 9 9 9 8 7 6 5 4 7 9 9 5 2 7 11 17 17 15 15 14 14
4 4 5 5 5 5 5 4 6 11 10 10 9 9 8 8 11 12 12 12 12 12 11 10 8 8 6 4 4 6 6 6 8 4 2 10 13 17 17 15 15 15 15
8 7 6 5 6 5 5 5 6 6 7 9 11 10 9 11 9 10 9 12 11 11 11 10 9 8 8 7 6 6 7 10 5 4 5 9 17 19 17 16 15 16 15
10 8 8 7 5 5 5 4 4 4 4 5 9 10 7 7 6 5 5 5 5 10 7 8 8 7 10 7 8 9 11 7 4 4 9 12 13 19 18 16 16 16 15
7 7 7 7 6 5 4 4 6 6 5 5 5 7 6 5 6 6 5 9 8 6 8 9 7 9 9 7 10 12 9 6 4 3 10 14 15 17 17 16 15 16 16
5 5 6 5 5 5 5 5 5 7 7 7 7 6 4 5 6 6 7 7 7 7 5 7 7 7 8 8 9 8 8 8 7 6 6 13 13 16 16 16 15 16 16
5 5 5 4 4 5 5 6 5 6 7 7 6 7 7 3 5 3 2 5 5 4 8 3 2 5 5 5 6 7 7 5 9 9 6 6 8 14 15 15 14 16 16
6 6 7 5 4 4 5 5 5 5 6 6 6 8 8 5 3 3 5 3 1 5 5 5 3 4 2 4 2 5 4 10 9 9 7 6 7 9 14 16 15 15 15
6 6 6 6 5 5 4 5 5 6 6 6 7 7 7 7 5 5 6 7 6 3 5 6 6 3 2 4 4 4 5 7 10 6 6 4 4 4 7 12 13 14 16
4 4 5 6 7 7 6 5 6 7 6 7 7 6 8 9 9 8 6 6 10 8 8 8 7 7 4 6 8 6 6 6 6 5 7 6 4 4 4 10 10 8 14
4 5 7 7 8 9 7 7 6 6 6 6 8 8 10 8 10 8 7 9 10 9 9 8 10 4 7 8 9 7 6 5 4 2 6 5 4 3 6 6 5 5 13
7 8 10 11 11 8 6 7 7 7 7 7 8 12 11 10 11 8 5 8 10 10 12 12 10 10 5 9 8 7 6 6 6 2 2 4 5 4 4 5 6 5 7
9 10 12 13 12 9 7 7 7 8 8 8 6 9 11 11 9 8 9 9 10 8 13 12 15 10 4 10 6 7 4 2 2 4 4 4 5 3 4 4 6 9 6
10 11 13 14 13 11 11 7 7 8 8 8 8 7 9 13 12 11 12 10 11 8 9 12 13 15 9 10 13 4 5 5 6 2 3 2 4 4 5 5 6 6 6
11 10 12 13 13 11 11 9 11 9 10 8 8 8 8 11 13 12 11 12 11 10 11 10 12 11 8 11 4 1 3 6 4 5 3 2 3 5 6 5 5 5 7
12 10 11 14 14 14 12 11 8 10 9 8 9 12 12 9 12 11 11 13 12 10 11 12 13 12 9 9 8 2 3 6 7 5 6 7 3 4 4 4 5 3 5
11 12 12 14 14 13 12 12 12 11 10 8 10 10 9 8 8 13 12 12 12 11 12 12 12 13 10 10 7 4 4 4 7 3 5 10 7 4 2 1 3 3 3
Wind_Direction
126 128 145 148 147 144 156 183 157 148 157 164 169 168 164 149 151 151 149 134 137 140 126 125 124 119 113 110 99 91 86 83 81 85 83 80 87 88 89 71 125 86 85
316 216 144 162 163 162 162 175 193 191 159 167 165 165 160 156 163 163 160 155 148 138 130 127 121 117 113 109 106 100 96 96 94 102 109 93 67 67 62 70 88 96 86
323 208 166 176 169 171 169 163 193 220 184 176 179 179 174 176 174 175 174 168 159 152 144 138 131 127 125 113 110 109 112 109 108 156 200 83 83 71 70 75 94 95 93
71 194 169 168 194 171 177 179 178 221 214 213 202 190 181 188 192 187 182 178 184 162 159 141 140 133 125 123 124 125 129 128 161 235 216 122 98 85 78 79 87 89 92
40 102 83 142 173 205 181 202 177 206 214 230 248 196 193 194 200 196 190 192 173 166 150 137 126 137 138 133 130 129 140 149 202 269 40 49 69 92 97 102 93 81 78
72 62 77 20 229 231 243 195 197 201 200 240 229 207 212 198 196 197 199 189 162 157 144 139 140 145 145 143 142 141 146 173 225 240 94 93 75 109 94 92 94 91 95
38 27 53 24 281 241 243 243 210 219 210 230 241 225 222 217 213 209 198 158 151 157 151 148 150 151 151 153 155 157 163 207 223 266 99 139 112 123 111 104 97 88 82
359 6 20 52 20 309 248 239 244 228 223 228 225 238 234 233 224 216 189 154 155 162 161 157 158 161 161 171 168 170 188 229 205 226 134 102 132 152 123 108 102 100 90
337 334 332 359 348 248 234 243 247 253 238 238 222 218 238 238 230 214 188 169 163 165 167 166 166 168 173 182 187 173 200 239 275 197 156 137 154 148 124 113 105 97 93
314 323 334 322 313 323 320 208 226 244 254 253 226 216 227 239 232 209 193 181 169 173 176 175 173 175 182 184 189 191 209 248 242 120 224 98 143 146 126 120 113 107 103
296 301 340 324 310 294 293 310 223 232 245 251 261 220 222 233 224 210 202 171 180 171 172 179 178 178 166 147 175 180 204 220 231 156 147 125 153 144 125 123 119 113 105
295 300 310 320 320 303 282 273 280 275 215 232 242 234 227 231 228 216 194 169 170 171 161 179 179 161 181 182 173 171 209 206 183 139 94 138 155 133 129 128 122 116 110
294 294 295 298 291 302 297 295 278 261 259 230 244 248 247 243 237 200 170 180 162 164 175 178 173 192 202 192 159 182 209 190 166 158 116 123 147 130 129 127 125 118 111
310 310 306 292 278 281 294 273 270 273 261 263 237 227 240 247 234 221 194 187 182 172 202 185 181 193 201 198 170 188 199 171 195 151 136 136 143 133 132 130 127 120 113
320 330 316 309 278 266 276 282 273 265 266 251 252 264 233 231 241 230 221 189 184 177 202 194 189 172 194 189 184 186 184 186 202 93 122 128 136 134 133 131 131 123 115
2 7 354 329 307 288 273 273 274 276 273 269 270 272 256 236 268 231 77 320 139 178 172 197 173 153 180 190 179 182 179 185 75 96 112 113 124 127 132 134 133 125 116
56 50 43 27 350 309 291 283 269 265 266 267 261 259 254 230 245 217 121 113 196 117 61 67 119 130 172 165 111 69 56 80 85 95 108 120 145 134 145 140 139 129 119
78 61 44 27 33 6 334 298 279 268 258 254 258 252 248 251 207 182 159 155 142 151 130 149 111 89 271 116 90 72 73 82 95 74 94 80 95 136 140 137 140 132 121
50 18 360 352 342 332 313 300 287 273 261 257 248 237 228 226 198 184 157 166 166 158 167 154 171 136 176 141 104 85 85 100 112 116 99 80 76 95 107 93 94 115 126
327 336 332 329 325 318 301 280 265 253 248 262 260 252 217 228 218 212 169 181 172 171 167 166 169 177 157 137 118 108 103 86 92 101 121 109 82 106 106 109 100 94 115
297 319 323 316 312 306 287 283 279 269 252 222 231 254 246 216 215 187 169 176 180 177 177 168 166 177 125 134 116 101 93 110 109 156 88 125 144 145 152 156 122 104 87
297 311 321 314 309 303 294 283 283 284 281 279 224 217 238 234 215 187 178 185 182 179 174 172 174 178 149 162 141 117 132 103 65 151 143 144 152 167 149 139 142 125 128
302 318 309 307 302 298 293 289 279 272 263 265 268 229 220 231 211 215 186 184 186 185 185 173 181 179 165 182 169 136 140 168 143 84 136 173 164 159 144 135 128 125 115
299 308 299 301 295 291 289 284 279 270 275 269 258 258 226 211 221 214 191 185 183 184 175 182 186 187 171 184 195 240 178 138 167 149 137 212 200 173 159 157 146 136 135
306 313 301 293 289 289 286 277 268 265 270 268 265 265 249 198 211 209 212 191 191 194 184 177 180 180 182 177 181 103 163 162 159 154 153 166 198 180 165 143 138 147 135
316 307 300 297 288 286 279 279 272 260 259 260 269 275 258 223 197 208 210 203 185 188 189 183 179 184 177 182 184 175 164 172 169 142 132 154 149 156 140 121 142 160 144